Showing default

OPS 9314 (IDSCS 4), 2218

Orbit data source: Space-Track

OPS 9314 (IDSCS 4), 2218 is a payload satellite owned by USAF SSD (US) in GEO that was launched on Thu, 16 Jun 1966 UTC via a TITAN IIIC launch vehicle from the Air Force Eastern Test Range (AFETR). Payloads include a variety of satellites, spacecraft, and rockets equipped with specific instruments for various scientific and technological missions. These include communications satellites like Starlink; space stations such as the ISS; scientific satellites like the Hubble; Earth observation satellites from companies like Planet Labs, Umbra, and HawkEye 360; GPS; miniature CubeSats for education and research; and military/defense satellites.

Loading next visibility...
OPS 9314 (IDSCS 4) details
Identifier
2218, 1966-053E
Orbit
GEO
Last TLE update21 hours ago
Origin
Flag of USUSAF SSD (US)
ManufacturerPhilco-Ford WDL
MissionNon-operational Defense Communications
Bus & MotorIDCSP, Unknown motor
Mass45 kg wet, 45 kg dry
Launch date (UTC)
1966-06-16 (59 years ago)
Launch vehicle
TITAN IIIC
Launch site
Air Force Eastern Test Range (AFETR)
Object type
Payload
Rocket body
Debris
Shape & HBRIco Poly, 0.9 m
Radar Cross Section0.926 m², Medium (>0.1 m² and < 1m²)

Expand to show TLE details & history

TLE from 21 hours ago
0 OPS 9314 (IDSCS 4)
1  2218U 66053E   25013.54983969 -.00000066  00000-0  00000+0 0  9999
2  2218   7.5848  49.4380 0044554 186.5271 256.8382  1.07584267229802
Epoch: 2025-01-13T13:11Z
Definitive object data (Epoch: 2025-01-13T13:11:46.149Z)
Latitude7.55343°
Longitude-178.94353°
Altitude33,894.697 km
Speed3.144 km/s
True Right ascension08h 49m 04s
True Declination7° 32' 44"
Sunlit
Object was in daylight at TLE epoch
Visualization TLE readout
Latitude6.38805°
Longitude155.14297°
Altitude33,966.045 km
Speed3.139 km/s
Apparent Right ascension06h 41m 52s
Apparent Declination0° 38' 10"
Sunlit
Object is in daylight
Visualization observer readout
Local Sidereal Time10:30:07
Azimuth247.926° W
Elevation25.094°
Doppler factor1
Orbital elements
Apogee altitude34,033.995 km
Perigee altitude33,675.488 km
Semi-major axis40,232.879 km
Eccentricity0.0044554
Inclination7.5848°
RAAN49.438°
Arg. of periapsis186.5271°
True anomaly256.3417°
Mean anomaly256.8382°
Eccentric anomaly256.58988°
Mean motion0.26895 °/min
BSTARUnknown
Orbital period1338.54 mins
Loading historical data...
2218 neighbors
Authenticating...
Loading maneuver chart data...
Loading historical data...
Loading historical data...
Loading historical data...
Loading historical data...
Loading historical data...
Loading historical data...
Loading historical data...

OPS 9314 (IDSCS 4) Visibility forecast

Observer location: undefined°, undefined

Span
Click to sort rows by Start time (UTC) header in descending order
Start Az.
Max El. time (UTC)
Max El. Az.
Max El.
End time (UTC)
End Az.
1440 mins2025-01-14 09:54:07.574Z247.909° W2025-01-15 09:54:07.574Z221.092° SW34.929°2025-01-15 09:54:07.574Z221.092° SW
|